| time (UTC) | temp C | wind direction | speed KPH | gust KPH | rain 1hr cm | rain 24hr cm | rain mn cm | humidity % | barometer mb |
| 20260506044803 | 11 | 346 | 0.0 | 9.7 | 0.00 | 0.08 | 0.08 | 62 | 1013.9 |
| 20260506044304 | 11 | 354 | 1.6 | 9.7 | 0.00 | 0.08 | 0.08 | 62 | 1013.7 |
| 20260506043804 | 11 | 341 | 1.6 | 12.9 | 0.00 | 0.08 | 0.08 | 62 | 1013.6 |
| 20260506043304 | 11 | 349 | 6.4 | 16.1 | 0.00 | 0.08 | 0.08 | 62 | 1013.6 |
| 20260506042804 | 11 | 346 | 4.8 | 12.9 | 0.00 | 0.08 | 0.08 | 62 | 1013.5 |
| 20260506042305 | 11 | 355 | 8.0 | 16.1 | 0.00 | 0.08 | 0.08 | 62 | 1013.5 |
| 20260506041803 | 11 | 355 | 4.8 | 12.9 | 0.00 | 0.08 | 0.08 | 62 | 1013.5 |
| 20260506041303 | 11 | 353 | 8.0 | 14.5 | 0.00 | 0.08 | 0.08 | 61 | 1013.4 |
| 20260506040803 | 11 | 337 | 4.8 | 16.1 | 0.00 | 0.08 | 0.08 | 61 | 1013.3 |
| 20260506040303 | 11 | 354 | 8.0 | 14.5 | 0.00 | 0.08 | 0.08 | 60 | 1013.2 |
| 20260506035804 | 11 | 342 | 4.8 | 14.5 | 0.00 | 0.08 | 0.08 | 59 | 1013.1 |
| 20260506035306 | 11 | 330 | 8.0 | 19.3 | 0.00 | 0.08 | 0.08 | 59 | 1013.0 |
| 20260506034804 | 11 | 350 | 4.8 | 19.3 | 0.00 | 0.08 | 0.08 | 59 | 1013.0 |
| 20260506034303 | 11 | 353 | 8.0 | 19.3 | 0.00 | 0.08 | 0.08 | 60 | 1013.0 |
| 20260506033803 | 11 | 344 | 9.7 | 19.3 | 0.00 | 0.08 | 0.08 | 60 | 1012.9 |
| 20260506033303 | 11 | 336 | 8.0 | 16.1 | 0.00 | 0.08 | 0.08 | 61 | 1012.9 |
| 20260506032803 | 11 | 336 | 4.8 | 12.9 | 0.00 | 0.08 | 0.08 | 61 | 1013.0 |
| 20260506032305 | 11 | 328 | 4.8 | 16.1 | 0.00 | 0.08 | 0.08 | 61 | 1012.7 |
| 20260506031803 | 11 | 319 | 6.4 | 16.1 | 0.00 | 0.08 | 0.08 | 61 | 1012.6 |
| 20260506031304 | 11 | 357 | 14.5 | 25.7 | 0.00 | 0.08 | 0.08 | 61 | 1012.4 |
| 20260506030804 | 11 | 350 | 11.3 | 20.9 | 0.00 | 0.08 | 0.08 | 61 | 1012.2 |
| 20260506025803 | 11 | 358 | 11.3 | 20.9 | 0.00 | 0.08 | 0.08 | 60 | 1012.3 |
| 20260506024804 | 12 | 356 | 14.5 | 24.1 | 0.00 | 0.08 | 0.08 | 59 | 1012.1 |
| 20260506024303 | 12 | 359 | 14.5 | 22.5 | 0.00 | 0.08 | 0.08 | 58 | 1012.0 |
| 20260506023304 | 12 | 357 | 12.9 | 29.0 | 0.00 | 0.08 | 0.08 | 56 | 1011.6 |
| 20260506021304 | 13 | 355 | 6.4 | 19.3 | 0.00 | 0.08 | 0.08 | 54 | 1011.2 |
| 20260506020303 | 14 | 292 | 0.0 | 4.8 | 0.00 | 0.08 | 0.08 | 56 | 1010.6 |
| 20260506015803 | 14 | 292 | 1.6 | 4.8 | 0.00 | 0.08 | 0.08 | 55 | 1010.6 |
| 20260506015306 | 14 | 292 | 1.6 | 4.8 | 0.00 | 0.08 | 0.08 | 55 | 1010.3 |
| 20260506014304 | 15 | 292 | 3.2 | 11.3 | 0.00 | 0.08 | 0.08 | 54 | 1010.2 |
| 20260506013803 | 15 | 292 | 3.2 | 8.0 | 0.00 | 0.08 | 0.08 | 54 | 1010.2 |
| 20260506013304 | 15 | 292 | 3.2 | 11.3 | 0.03 | 0.08 | 0.08 | 53 | 1010.2 |
| 20260506012804 | 15 | 292 | 0.0 | 4.8 | 0.03 | 0.08 | 0.08 | 53 | 1009.9 |
| 20260506012307 | 15 | 292 | 1.6 | 4.8 | 0.03 | 0.08 | 0.08 | 52 | 1009.9 |
| 20260506011303 | 15 | 292 | 1.6 | 8.0 | 0.03 | 0.08 | 0.08 | 51 | 1010.1 |
| 20260506010303 | 15 | 292 | 1.6 | 11.3 | 0.03 | 0.08 | 0.08 | 51 | 1009.9 |
| 20260506005804 | 15 | 292 | 6.4 | 14.5 | 0.03 | 0.08 | 0.08 | 50 | 1009.7 |
| 20260506005305 | 16 | 294 | 3.2 | 14.5 | 0.03 | 0.08 | 0.08 | 51 | 1009.8 |
| 20260506004803 | 16 | 297 | 4.8 | 19.3 | 0.03 | 0.08 | 0.08 | 51 | 1009.5 |
| 20260506004303 | 16 | 293 | 6.4 | 14.5 | 0.03 | 0.08 | 0.08 | 53 | 1009.6 |
| 20260506003803 | 16 | 298 | 4.8 | 19.3 | 0.03 | 0.08 | 0.08 | 51 | 1009.8 |
| 20260506003304 | 16 | 303 | 4.8 | 19.3 | 0.00 | 0.05 | 0.05 | 52 | 1010.2 |
| 20260506002305 | 16 | 342 | 8.0 | 16.1 | 0.00 | 0.05 | 0.05 | 43 | 1009.6 |
| 20260506001803 | 17 | 321 | 3.2 | 12.9 | 0.00 | 0.05 | 0.05 | 43 | 1009.6 |
| 20260506001303 | 17 | 324 | 3.2 | 9.7 | 0.00 | 0.05 | 0.05 | 42 | 1009.6 |
| 20260506000303 | 17 | 338 | 1.6 | 8.0 | 0.00 | 0.05 | 0.05 | 42 | 1009.3 |
| 20260505235803 | 17 | 347 | 0.0 | 4.8 | 0.00 | 0.05 | 0.05 | 43 | 1009.8 |
| 20260505235305 | 17 | 333 | 0.0 | 3.2 | 0.00 | 0.05 | 0.05 | 43 | 1009.8 |
| 20260505234803 | 17 | 334 | 1.6 | 9.7 | 0.00 | 0.05 | 0.05 | 43 | 1009.9 |
| 20260505234304 | 17 | 336 | 3.2 | 24.1 | 0.00 | 0.05 | 0.05 | 43 | 1009.8 |
| 20260505233805 | 17 | 333 | 3.2 | 9.7 | 0.00 | 0.05 | 0.05 | 44 | 1009.8 |
| 20260505233304 | 17 | 345 | 3.2 | 19.3 | 0.00 | 0.05 | 0.05 | 45 | 1009.8 |
| 20260505232804 | 17 | 301 | 3.2 | 11.3 | 0.00 | 0.05 | 0.05 | 44 | 1009.8 |
| 20260505231805 | 17 | 354 | 3.2 | 12.9 | 0.00 | 0.05 | 0.05 | 44 | 1009.7 |
| 20260505231305 | 17 | 327 | 0.0 | 9.7 | 0.00 | 0.05 | 0.05 | 45 | 1010.0 |
| 20260505230804 | 17 | 327 | 1.6 | 12.9 | 0.00 | 0.05 | 0.05 | 45 | 1010.0 |
| 20260505230304 | 17 | 327 | 1.6 | 9.7 | 0.00 | 0.05 | 0.05 | 45 | 1010.1 |
| 20260505225804 | 17 | 327 | 3.2 | 14.5 | 0.00 | 0.05 | 0.05 | 46 | 1010.2 |
| 20260505225306 | 17 | 328 | 3.2 | 12.9 | 0.00 | 0.05 | 0.05 | 47 | 1010.2 |
| 20260505224805 | 16 | 347 | 1.6 | 9.7 | 0.00 | 0.05 | 0.05 | 47 | 1010.1 |
| 20260505223805 | 16 | 320 | 1.6 | 4.8 | 0.00 | 0.05 | 0.05 | 49 | 1010.1 |
| 20260505222805 | 16 | 295 | 1.6 | 11.3 | 0.03 | 0.05 | 0.05 | 50 | 1010.2 |
| 20260505222306 | 16 | 295 | 1.6 | 4.8 | 0.03 | 0.05 | 0.05 | 50 | 1010.4 |
| 20260505221805 | 16 | 295 | 3.2 | 11.3 | 0.03 | 0.05 | 0.05 | 50 | 1010.5 |
| 20260505221304 | 16 | 296 | 8.0 | 16.1 | 0.03 | 0.05 | 0.05 | 52 | 1010.5 |
| 20260505220804 | 15 | 277 | 4.8 | 19.3 | 0.03 | 0.05 | 0.05 | 53 | 1010.6 |
| 20260505220304 | 15 | 281 | 9.7 | 19.3 | 0.03 | 0.05 | 0.05 | 54 | 1010.5 |
| 20260505215805 | 15 | 290 | 1.6 | 12.9 | 0.03 | 0.05 | 0.05 | 56 | 1011.0 |
| 20260505214804 | 16 | 277 | 6.4 | 24.1 | 0.03 | 0.05 | 0.05 | 60 | 1011.6 |
| 20260505214304 | 16 | 312 | 14.5 | 33.8 | 0.03 | 0.05 | 0.05 | 59 | 1012.0 |
| 20260505213804 | 16 | 335 | 17.7 | 32.2 | 0.03 | 0.05 | 0.05 | 54 | 1012.1 |
| 20260505212805 | 17 | 349 | 14.5 | 29.0 | 0.00 | 0.03 | 0.03 | 47 | 1011.5 |
| 20260505211804 | 17 | 302 | 3.2 | 12.9 | 0.00 | 0.03 | 0.03 | 43 | 1011.1 |
| 20260505211305 | 18 | 302 | 3.2 | 12.9 | 0.00 | 0.03 | 0.03 | 41 | 1011.0 |
| 20260505210804 | 18 | 340 | 0.0 | 4.8 | 0.00 | 0.03 | 0.03 | 41 | 1010.8 |
| 20260505205805 | 18 | 11 | 1.6 | 11.3 | 0.00 | 0.03 | 0.03 | 41 | 1011.4 |
| 20260505205305 | 18 | 74 | 0.0 | 3.2 | 0.00 | 0.03 | 0.03 | 41 | 1011.3 |
| 20260505204804 | 18 | 60 | 1.6 | 8.0 | 0.00 | 0.03 | 0.03 | 40 | 1011.3 |
| 20260505204304 | 18 | 6 | 6.4 | 14.5 | 0.00 | 0.03 | 0.03 | 40 | 1011.4 |
| 20260505203804 | 19 | 6 | 0.0 | 12.9 | 0.00 | 0.03 | 0.03 | 39 | 1011.4 |
| 20260505203305 | 19 | 346 | 4.8 | 9.7 | 0.00 | 0.03 | 0.03 | 39 | 1011.6 |
| 20260505202804 | 19 | 334 | 3.2 | 8.0 | 0.00 | 0.03 | 0.03 | 39 | 1011.7 |
| 20260505202306 | 19 | 50 | 1.6 | 8.0 | 0.00 | 0.03 | 0.03 | 41 | 1011.7 |
| 20260505201804 | 18 | 347 | 4.8 | 14.5 | 0.00 | 0.03 | 0.03 | 42 | 1011.5 |
| 20260505201304 | 18 | 13 | 3.2 | 9.7 | 0.00 | 0.03 | 0.03 | 43 | 1011.6 |
| 20260505200804 | 18 | 348 | 0.0 | 9.7 | 0.00 | 0.03 | 0.03 | 47 | 1011.5 |
| 20260505200304 | 17 | 330 | 1.6 | 8.0 | 0.00 | 0.03 | 0.03 | 47 | 1011.6 |
| 20260505195804 | 17 | 312 | 4.8 | 19.3 | 0.00 | 0.03 | 0.03 | 48 | 1011.6 |
| 20260505195305 | 16 | 289 | 4.8 | 12.9 | 0.00 | 0.03 | 0.03 | 49 | 1011.7 |
| 20260505194804 | 16 | 294 | 4.8 | 16.1 | 0.00 | 0.03 | 0.03 | 50 | 1011.8 |
| 20260505194304 | 16 | 296 | 6.4 | 19.3 | 0.00 | 0.03 | 0.03 | 53 | 1012.0 |
| 20260505193804 | 16 | 334 | 4.8 | 19.3 | 0.00 | 0.03 | 0.03 | 52 | 1012.1 |
| 20260505193304 | 16 | 317 | 4.8 | 19.3 | 0.00 | 0.03 | 0.03 | 52 | 1012.1 |
| 20260505192804 | 15 | 287 | 11.3 | 19.3 | 0.00 | 0.03 | 0.03 | 53 | 1012.1 |
| 20260505192305 | 15 | 299 | 4.8 | 19.3 | 0.03 | 0.03 | 0.03 | 56 | 1012.1 |
| 20260505191304 | 15 | 287 | 1.6 | 12.9 | 0.03 | 0.03 | 0.03 | 57 | 1012.1 |
| 20260505190804 | 15 | 294 | 6.4 | 19.3 | 0.03 | 0.03 | 0.03 | 59 | 1012.2 |
| 20260505190304 | 14 | 278 | 1.6 | 4.8 | 0.03 | 0.03 | 0.03 | 60 | 1012.3 |
| 20260505185804 | 14 | 237 | 3.2 | 14.5 | 0.03 | 0.03 | 0.03 | 61 | 1012.5 |
| 20260505185305 | 14 | 237 | 1.6 | 8.0 | 0.03 | 0.03 | 0.03 | 64 | 1012.7 |
| 20260505184804 | 13 | 237 | 4.8 | 11.3 | 0.03 | 0.03 | 0.03 | 67 | 1012.7 |
| 20260505184304 | 13 | 215 | 4.8 | 9.7 | 0.03 | 0.03 | 0.03 | 65 | 1012.8 |
| 20260505183804 | 13 | 215 | 8.0 | 14.5 | 0.03 | 0.03 | 0.03 | 64 | 1013.0 |
| 20260505183304 | 13 | 215 | 8.0 | 14.5 | 0.03 | 0.03 | 0.03 | 64 | 1012.9 |
| 20260505182805 | 14 | 215 | 4.8 | 14.5 | 0.03 | 0.03 | 0.03 | 63 | 1013.0 |
| 20260505182306 | 15 | 200 | 8.0 | 19.3 | 0.00 | 0.00 | 0.00 | 57 | 1012.6 |
| 20260505181804 | 15 | 203 | 8.0 | 16.1 | 0.00 | 0.00 | 0.00 | 50 | 1012.7 |
| 20260505181304 | 16 | 188 | 6.4 | 14.5 | 0.00 | 0.00 | 0.00 | 45 | 1012.6 |
| 20260505180304 | 16 | 175 | 4.8 | 11.3 | 0.00 | 0.00 | 0.00 | 43 | 1012.5 |
| 20260505175305 | 16 | 178 | 1.6 | 4.8 | 0.00 | 0.00 | 0.00 | 42 | 1012.4 |
| 20260505174804 | 16 | 178 | 3.2 | 9.7 | 0.00 | 0.00 | 0.00 | 43 | 1012.5 |
| 20260505174305 | 16 | 169 | 0.0 | 1.6 | 0.00 | 0.00 | 0.00 | 43 | 1012.4 |
| 20260505173804 | 16 | 133 | 3.2 | 4.8 | 0.00 | 0.00 | 0.00 | 44 | 1012.4 |
| 20260505173305 | 16 | 61 | 6.4 | 11.3 | 0.00 | 0.00 | 0.00 | 44 | 1012.2 |
| 20260505172804 | 15 | 39 | 9.7 | 16.1 | 0.00 | 0.00 | 0.00 | 45 | 1012.2 |
| 20260505172306 | 15 | 90 | 1.6 | 4.8 | 0.00 | 0.00 | 0.00 | 45 | 1012.2 |
| 20260505171304 | 15 | 353 | 4.8 | 9.7 | 0.00 | 0.00 | 0.00 | 46 | 1012.1 |
| 20260505170804 | 14 | 344 | 1.6 | 9.7 | 0.00 | 0.00 | 0.00 | 47 | 1012.2 |
| 20260505170304 | 14 | 347 | 8.0 | 14.5 | 0.00 | 0.00 | 0.00 | 47 | 1012.2 |
| 20260505165804 | 14 | 7 | 4.8 | 14.5 | 0.00 | 0.00 | 0.00 | 47 | 1012.6 |
| 20260505165306 | 14 | 4 | 6.4 | 14.5 | 0.00 | 0.00 | 0.00 | 48 | 1012.7 |
| 20260505164804 | 13 | 7 | 4.8 | 14.5 | 0.00 | 0.00 | 0.00 | 49 | 1012.6 |
| 20260505164304 | 13 | 349 | 6.4 | 14.5 | 0.00 | 0.00 | 0.00 | 51 | 1012.5 |
| 20260505163804 | 13 | 14 | 1.6 | 14.5 | 0.00 | 0.00 | 0.00 | 54 | 1012.4 |
| 20260505163304 | 13 | 349 | 9.7 | 19.3 | 0.00 | 0.00 | 0.00 | 53 | 1012.4 |
| 20260505162804 | 12 | 348 | 9.7 | 19.3 | 0.00 | 0.00 | 0.00 | 53 | 1012.5 |
| 20260505162306 | 12 | 349 | 14.5 | 19.3 | 0.00 | 0.00 | 0.00 | 54 | 1012.6 |
| 20260505161804 | 12 | 356 | 11.3 | 19.3 | 0.00 | 0.00 | 0.00 | 57 | 1012.5 |
| 20260505161304 | 12 | 346 | 9.7 | 19.3 | 0.00 | 0.00 | 0.00 | 59 | 1012.6 |
| 20260505160804 | 12 | 347 | 9.7 | 20.9 | 0.00 | 0.00 | 0.00 | 58 | 1012.7 |
| 20260505152804 | 12 | 344 | 4.8 | 20.9 | 0.00 | 0.00 | 0.00 | 62 | 1013.1 |
| 20260505151804 | 12 | 333 | 6.4 | 16.1 | 0.00 | 0.00 | 0.00 | 63 | 1013.3 |
| 20260505150804 | 12 | 340 | 11.3 | 22.5 | 0.00 | 0.00 | 0.00 | 62 | 1013.3 |
| 20260505150304 | 12 | 353 | 9.7 | 19.3 | 0.00 | 0.00 | 0.00 | 62 | 1013.3 |
| 20260505140304 | 14 | 300 | 0.0 | 1.6 | 0.00 | 0.00 | 0.00 | 46 | 1013.1 |
| 20260505130303 | 14 | 300 | 3.2 | 12.9 | 0.00 | 0.00 | 0.00 | 41 | 1012.6 |
| 20260505124804 | 14 | 300 | 1.6 | 11.3 | 0.00 | 0.00 | 0.00 | 41 | 1012.2 |
| 20260505124304 | 14 | 300 | 1.6 | 8.0 | 0.00 | 0.00 | 0.00 | 41 | 1012.0 |
| 20260505123804 | 14 | 286 | 0.0 | 9.7 | 0.00 | 0.00 | 0.00 | 40 | 1012.0 |
| 20260505123304 | 14 | 286 | 1.6 | 16.1 | 0.00 | 0.00 | 0.00 | 40 | 1012.0 |
| 20260505122804 | 14 | 290 | 8.0 | 14.5 | 0.00 | 0.00 | 0.00 | 39 | 1012.1 |
| 20260505122305 | 14 | 290 | 4.8 | 12.9 | 0.00 | 0.00 | 0.00 | 39 | 1012.1 |
| 20260505121804 | 14 | 290 | 4.8 | 14.5 | 0.00 | 0.00 | 0.00 | 41 | 1012.0 |
| 20260505121303 | 14 | 298 | 8.0 | 16.1 | 0.00 | 0.00 | 0.00 | 41 | 1012.0 |
| 20260505120804 | 14 | 280 | 9.7 | 16.1 | 0.00 | 0.00 | 0.00 | 40 | 1012.1 |
| 20260505120304 | 15 | 288 | 11.3 | 19.3 | 0.00 | 0.00 | 0.00 | 40 | 1012.1 |
| 20260505115804 | 15 | 295 | 8.0 | 12.9 | 0.00 | 0.00 | 0.00 | 39 | 1012.0 |
| 20260505115305 | 15 | 295 | 3.2 | 12.9 | 0.00 | 0.00 | 0.00 | 39 | 1012.0 |
| 20260505114804 | 15 | 293 | 4.8 | 11.3 | 0.00 | 0.00 | 0.00 | 40 | 1012.0 |
| 20260505114303 | 15 | 292 | 3.2 | 8.0 | 0.00 | 0.00 | 0.00 | 41 | 1012.0 |
| 20260505113804 | 15 | 292 | 4.8 | 11.3 | 0.00 | 0.00 | 0.00 | 41 | 1011.9 |
| 20260505112804 | 15 | 281 | 1.6 | 11.3 | 0.00 | 0.00 | 0.00 | 40 | 1011.8 |
| 20260505112305 | 15 | 281 | 4.8 | 12.9 | 0.00 | 0.00 | 0.00 | 40 | 1011.8 |
| 20260505111803 | 15 | 282 | 3.2 | 9.7 | 0.00 | 0.00 | 0.00 | 40 | 1011.7 |
| 20260505111303 | 15 | 281 | 4.8 | 11.3 | 0.00 | 0.00 | 0.00 | 39 | 1011.8 |
| 20260505110804 | 15 | 282 | 4.8 | 12.9 | 0.00 | 0.00 | 0.00 | 39 | 1011.8 |
| 20260505110304 | 15 | 280 | 3.2 | 12.9 | 0.00 | 0.00 | 0.00 | 37 | 1012.0 |
| 20260505101804 | 15 | 296 | 6.4 | 19.3 | 0.00 | 0.00 | 0.00 | 33 | 1012.1 |
| 20260505101304 | 15 | 300 | 3.2 | 16.1 | 0.00 | 0.00 | 0.00 | 33 | 1012.1 |
| 20260505100804 | 15 | 300 | 4.8 | 11.3 | 0.00 | 0.00 | 0.00 | 33 | 1012.0 |
| 20260505100304 | 15 | 300 | 3.2 | 11.3 | 0.00 | 0.00 | 0.00 | 33 | 1012.0 |
| 20260505095804 | 15 | 300 | 4.8 | 14.5 | 0.00 | 0.00 | 0.00 | 32 | 1011.9 |
| 20260505095304 | 15 | 301 | 1.6 | 12.9 | 0.00 | 0.00 | 0.00 | 32 | 1011.9 |
| 20260505094804 | 15 | 301 | 3.2 | 12.9 | 0.00 | 0.00 | 0.00 | 32 | 1012.0 |
| 20260505093803 | 15 | 302 | 1.6 | 4.8 | 0.00 | 0.00 | 0.00 | 32 | 1012.0 |
| 20260505092803 | 15 | 302 | 0.0 | 0.0 | 0.00 | 0.00 | 0.00 | 32 | 1012.1 |
| 20260505092305 | 15 | 302 | 0.0 | 0.0 | 0.00 | 0.00 | 0.00 | 31 | 1012.0 |
| 20260505091303 | 16 | 302 | 0.0 | 0.0 | 0.00 | 0.00 | 0.00 | 31 | 1012.2 |
| 20260505090804 | 16 | 302 | 0.0 | 0.0 | 0.00 | 0.00 | 0.00 | 31 | 1012.0 |
| 20260505090304 | 16 | 302 | 1.6 | 4.8 | 0.00 | 0.00 | 0.00 | 30 | 1012.1 |
| 20260505085804 | 16 | 302 | 1.6 | 4.8 | 0.00 | 0.00 | 0.00 | 30 | 1012.1 |
| 20260505085305 | 16 | 301 | 3.2 | 4.8 | 0.00 | 0.00 | 0.00 | 30 | 1012.3 |
| 20260505084804 | 16 | 301 | 1.6 | 8.0 | 0.00 | 0.00 | 0.00 | 30 | 1012.3 |
| 20260505084303 | 16 | 302 | 3.2 | 8.0 | 0.00 | 0.00 | 0.00 | 31 | 1012.3 |
| 20260505083304 | 16 | 302 | 1.6 | 11.3 | 0.00 | 0.00 | 0.00 | 30 | 1012.6 |
| 20260505082803 | 16 | 302 | 3.2 | 12.9 | 0.00 | 0.00 | 0.00 | 30 | 1012.7 |
| 20260505081804 | 16 | 302 | 1.6 | 8.0 | 0.00 | 0.00 | 0.00 | 30 | 1012.8 |
| 20260505081304 | 16 | 301 | 3.2 | 12.9 | 0.00 | 0.00 | 0.00 | 30 | 1012.6 |
| 20260505080804 | 16 | 301 | 9.7 | 16.1 | 0.00 | 0.00 | 0.00 | 29 | 1012.7 |
| 20260505080304 | 16 | 306 | 6.4 | 14.5 | 0.00 | 0.00 | 0.00 | 29 | 1012.8 |
| 20260505075804 | 16 | 298 | 4.8 | 16.1 | 0.00 | 0.00 | 0.00 | 29 | 1012.8 |
| 20260505075304 | 16 | 288 | 4.8 | 16.1 | 0.00 | 0.00 | 0.00 | 29 | 1012.8 |
| 20260505074303 | 17 | 297 | 4.8 | 12.9 | 0.00 | 0.00 | 0.00 | 29 | 1012.7 |
| 20260505073804 | 17 | 297 | 4.8 | 12.9 | 0.00 | 0.00 | 0.00 | 29 | 1012.5 |
| 20260505073303 | 17 | 298 | 4.8 | 12.9 | 0.00 | 0.00 | 0.00 | 29 | 1012.7 |
| 20260505072804 | 17 | 298 | 4.8 | 14.5 | 0.00 | 0.00 | 0.00 | 29 | 1012.7 |
| 20260505072305 | 17 | 298 | 3.2 | 12.9 | 0.00 | 0.00 | 0.00 | 29 | 1012.7 |
| 20260505071804 | 17 | 299 | 4.8 | 16.1 | 0.00 | 0.00 | 0.00 | 29 | 1012.6 |
| 20260505071303 | 17 | 288 | 3.2 | 14.5 | 0.00 | 0.00 | 0.00 | 29 | 1012.7 |
| 20260505070804 | 17 | 288 | 8.0 | 19.3 | 0.00 | 0.00 | 0.00 | 28 | 1012.5 |
| 20260505070304 | 17 | 267 | 9.7 | 25.7 | 0.00 | 0.00 | 0.00 | 28 | 1012.6 |
| 20260505065804 | 17 | 267 | 8.0 | 22.5 | 0.00 | 0.00 | 0.00 | 28 | 1012.5 |
| 20260505064804 | 17 | 279 | 8.0 | 22.5 | 0.00 | 0.00 | 0.00 | 27 | 1012.4 |
| 20260505063804 | 17 | 286 | 4.8 | 19.3 | 0.00 | 0.00 | 0.00 | 27 | 1012.4 |
| 20260505063304 | 18 | 288 | 4.8 | 19.3 | 0.00 | 0.00 | 0.00 | 26 | 1012.4 |
| 20260505062804 | 18 | 280 | 8.0 | 19.3 | 0.00 | 0.00 | 0.00 | 26 | 1012.2 |
| 20260505061803 | 18 | 261 | 4.8 | 19.3 | 0.00 | 0.00 | 0.00 | 26 | 1012.3 |
| 20260505060304 | 18 | 281 | 8.0 | 24.1 | 0.00 | 0.00 | 0.00 | 25 | 1012.4 |
| 20260505055804 | 18 | 270 | 9.7 | 19.3 | 0.00 | 0.00 | 0.00 | 25 | 1012.3 |
| 20260505055304 | 18 | 285 | 11.3 | 22.5 | 0.00 | 0.00 | 0.00 | 25 | 1012.2 |
| 20260505054804 | 18 | 278 | 11.3 | 32.2 | 0.00 | 0.00 | 0.00 | 24 | 1012.0 |
| 20260505054304 | 18 | 288 | 12.9 | 25.7 | 0.00 | 0.00 | 0.00 | 24 | 1012.1 |
| 20260505053804 | 18 | 306 | 9.7 | 22.5 | 0.00 | 0.00 | 0.00 | 24 | 1012.2 |
| 20260505053304 | 18 | 297 | 8.0 | 19.3 | 0.00 | 0.00 | 0.00 | 24 | 1012.2 |
| 20260505052804 | 18 | 302 | 6.4 | 19.3 | 0.00 | 0.00 | 0.00 | 24 | 1012.2 |
| 20260505052304 | 18 | 299 | 9.7 | 20.9 | 0.00 | 0.00 | 0.00 | 23 | 1012.2 |
| 20260505051803 | 19 | 309 | 6.4 | 16.1 | 0.00 | 0.00 | 0.00 | 23 | 1012.3 |
| 20260505051304 | 19 | 286 | 8.0 | 22.5 | 0.00 | 0.00 | 0.00 | 23 | 1012.3 |
| 20260505050803 | 19 | 288 | 8.0 | 19.3 | 0.00 | 0.00 | 0.00 | 23 | 1012.3 |
| 20260505050304 | 19 | 294 | 8.0 | 19.3 | 0.00 | 0.00 | 0.00 | 22 | 1012.2 |